Simultaneous Nadir Overpasses (SNOs) Predictions

Prediction of SNOs between FY3D and AQUA Satellite Orbit:

Table of predicted SNOs for the next 14.0 days since TLE Epoch: 1/20/2024
Index Date (FY3D) Time (FY3D) Lat,Lon (FY3D) SZA (FY3D ) Date (AQUA) Time (AQUA) Lat,Lon (AQUA) SZA (AQUA ) Distance(km) Time Diff (sec)
1 01/20/2024 03:40:02 79.17, 105.61 100.11 01/20/2024 03:40:29 79.18, 105.54 100.11 1.44 27
2 01/20/2024 04:30:39 -78.88, -84.94 80.32 01/20/2024 04:29:44 -78.88, -84.97 80.30 0.84 55
3 01/22/2024 16:34:38 79.11, -87.56 99.48 01/22/2024 16:34:59 79.12, -87.68 99.48 2.57 21
4 01/22/2024 17:25:15 -78.82, 81.89 80.96 01/22/2024 17:24:14 -78.82, 81.79 80.93 2.43 61
5 01/25/2024 05:29:17 79.17, 78.43 98.96 01/25/2024 05:29:30 79.16, 78.48 98.95 1.10 13
6 01/25/2024 06:19:54 -78.87,-112.06 81.48 01/25/2024 06:18:45 -78.86,-112.04 81.47 0.75 69
7 01/27/2024 18:23:54 79.19,-115.36 98.37 01/27/2024 18:23:58 79.18,-115.23 98.35 2.99 4
8 01/27/2024 19:11:30 -70.57, 81.15 91.01 01/27/2024 19:10:17 -70.19, 78.90 91.46 94.06 73
9 01/30/2024 06:28:39 -80.62,-132.39 79.68 01/30/2024 06:29:53 -80.86,-131.83 79.57 28.58 74
10 01/30/2024 07:18:27 79.05, 52.08 97.50 01/30/2024 07:18:22 79.06, 51.94 97.52 3.17 5
11 02/01/2024 19:22:27 -79.33, 48.99 82.79 02/01/2024 19:23:31 -79.33, 48.96 82.80 0.54 64



Historial Predications of SNOs between FY3D and AQUA
